RH
83 79 79 75 59 53 58 57 59 62 66 68 76 56 71 93 100 98 91 91 88 85 92 84 73 79 80 75 78 78 88 99 100 100 100 100 100 100 100 100 100 100 100 100
53 50 51 50 55 55 49 49 53 54 56 56 60 49 65 77 87 97 100 94 87 87 100 92 80 78 82 82 76 78 86 100 100 100 100 100 100 100 100 100 100 100 100 100
50 46 51 51 49 46 41 43 45 46 49 52 49 46 61 72 68 79 77 78 76 82 85 69 56 62 71 79 89 100 100 100 100 100 100 100 100 100 100 100 100 100 90 100
52 68 53 51 53 47 38 41 37 38 38 40 43 38 41 58 62 61 61 48 48 45 48 57 54 51 59 77 100 100 100 100 100 100 100 100 100 100 100 100 100 100 91 100
54 55 55 55 53 53 45 40 35 31 30 30 30 32 32 48 53 63 52 40 39 41 38 42 45 50 51 78 95 100 100 100 100 100 100 100 100 100 100 100 100 100 100 100
60 58 51 50 48 46 44 38 33 26 24 24 28 31 28 53 67 56 42 36 30 29 27 32 32 42 48 68 95 100 100 100 100 100 100 100 100 100 100 100 100 100 100 100
60 52 47 44 39 34 27 21 19 18 21 24 26 21 39 50 39 31 29 26 27 26 28 28 34 37 63 55 92 100 100 100 100 100 100 100 100 100 100 100 100 99 100 99
33 31 30 26 24 24 29 27 22 17 19 24 30 32 48 43 48 44 38 37 35 33 31 31 45 52 40 37 97 100 100 100 100 100 100 100 100 100 100 97 99 100 100 100
38 54 49 44 39 36 34 22 16 16 14 13 14 17 26 26 31 31 33 29 26 27 25 24 27 32 39 41 78 100 100 100 100 100 100 100 100 97 77 100 100 100 100 100
39 36 27 26 24 22 19 17 15 14 13 12 11 13 21 22 18 15 15 16 14 16 16 16 16 17 24 53 84 100 100 100 98 100 100 100 90 94 91 96 100 100 100 100
14 16 14 12 12 11 14 18 15 10 9 8 8 10 11 9 10 10 11 10 10 10 9 10 11 11 16 40 97 100 100 100 100 100 100 80 98 100 82 87 100 100 100 100
8 8 8 10 12 8 8 9 10 10 10 8 7 9 12 9 8 10 11 11 9 10 12 12 11 12 13 18 40 86 100 100 100 100 100 85 100 97 95 81 100 100 100 100
10 10 9 9 11 7 8 11 12 14 12 11 8 8 16 9 9 11 10 13 11 12 11 12 14 14 14 24 60 100 100 100 100 100 100 100 100 89 100 95 84 100 99 94
13 11 10 8 9 8 10 10 13 15 12 12 11 12 17 9 11 13 14 15 13 13 14 15 17 19 19 34 70 100 100 100 100 100 99 100 100 100 100 91 62 60 60 59
15 13 12 15 13 11 10 18 22 17 12 8 11 13 18 16 15 16 17 18 16 15 16 17 20 23 22 35 97 100 100 100 100 100 100 100 100 100 100 100 100 100 100 100
17 14 12 14 18 15 14 21 16 14 13 14 13 14 16 14 17 19 20 21 20 20 18 18 22 25 25 41 84 100 100 100 100 100 100 100 100 100 100 100 100 98 76 83
20 20 19 18 20 15 18 22 15 15 15 15 13 12 11 11 11 12 16 19 21 19 18 18 19 26 28 43 100 100 100 100 100 98 100 100 100 96 100 100 100 100 100 100
21 20 16 16 16 16 19 16 13 11 10 10 8 8 8 8 8 9 10 13 18 21 21 19 19 23 31 34 92 100 100 100 100 100 100 100 100 100 100 100 100 100 100 100
20 18 16 14 13 13 11 9 8 7 12 9 6 6 6 7 8 8 9 11 13 15 20 19 19 22 30 41 64 100 100 100 100 100 100 100 99 100 100 100 100 100 100 100
23 18 15 12 9 8 8 7 9 8 13 6 6 6 6 6 6 8 8 9 11 13 16 18 17 20 24 35 77 100 100 100 100 100 100 100 100 100 100 100 100 100 100 100
14 11 9 8 6 7 10 8 5 6 11 8 6 5 4 5 6 8 10 9 10 11 15 19 16 17 21 31 68 100 100 100 100 100 100 100 100 100 100 100 100 100 100 100
8 8 8 8 7 6 8 8 8 8 7 8 7 7 5 5 7 11 16 12 9 10 12 17 17 14 18 26 34 84 100 100 100 100 100 100 100 100 100 100 100 100 100 100
7 6 7 6 6 6 8 6 7 7 7 7 7 8 7 6 8 13 19 12 9 8 11 13 17 14 18 24 35 35 42 90 100 100 100 100 100 100 100 100 100 100 100 100
7 8 8 7 6 7 7 6 6 6 6 6 7 6 5 5 7 11 15 9 8 8 10 13 16 15 20 26 38 37 39 49 90 100 100 100 100 100 100 100 100 100 100 98
7 8 8 7 7 8 6 6 6 5 5 4 5 6 6 6 7 11 12 9 7 8 9 13 15 15 23 27 41 47 51 68 100 100 100 100 100 98 88 80 90 94 86 82
8 8 7 6 6 6 6 6 5 5 4 4 4 5 6 6 8 11 9 8 8 7 7 14 16 18 26 32 45 47 70 97 100 100 100 100 100 100 100 100 89 88 87 80
Wind_Speed
84 84 85 88 90 88 87 86 84 86 94 92 92 72 72 74 77 74 70 66 71 75 80 79 71 68 69 68 69 72 70 74 70 69 67 64 60 56 53 50 47 51 50 49
91 91 94 95 95 95 96 94 90 88 96 99 93 82 80 77 78 76 76 75 76 82 86 84 83 77 76 74 76 74 71 76 75 74 74 69 64 59 54 50 46 47 48 54
95 95 98 101 99 101 99 100 98 96 100 101 100 90 81 84 82 84 84 85 87 88 93 95 92 89 88 83 81 76 72 72 78 78 76 74 70 66 57 56 53 49 50 67
96 100 102 103 102 107 99 107 108 105 105 106 106 108 85 87 90 93 91 92 98 100 98 103 101 93 94 89 83 83 78 73 74 78 76 73 74 64 66 60 53 53 51 38
102 102 105 106 108 112 108 114 117 117 116 119 104 123 98 94 96 102 101 103 104 105 104 102 107 103 96 97 89 86 84 81 77 75 74 75 71 64 70 59 60 57 57 56
106 109 111 111 113 115 117 121 123 125 124 125 110 125 106 100 103 105 104 106 109 109 108 109 109 104 99 94 92 86 84 82 77 73 74 73 71 70 73 64 65 61 62 59
110 114 115 116 118 122 125 128 127 128 126 123 116 124 112 105 112 109 104 103 105 109 108 105 107 103 95 89 88 87 87 87 81 76 70 71 72 72 70 69 71 70 65 62
113 116 117 122 122 124 124 124 127 127 122 119 110 107 103 105 100 95 92 88 89 91 91 93 94 95 89 79 77 85 87 87 83 78 75 69 69 68 64 65 69 67 66 65
113 115 115 115 115 120 120 119 118 118 115 115 107 106 108 103 99 99 95 91 90 88 88 91 93 91 88 82 75 76 80 80 79 77 69 68 67 66 62 57 51 55 65 68
111 109 101 99 104 110 113 112 113 116 118 118 112 106 105 102 102 99 96 93 88 86 88 88 84 82 83 82 79 76 77 77 73 68 63 62 52 47 42 42 43 54 60 63
100 95 94 98 103 104 108 113 118 117 117 118 109 105 106 101 95 96 92 87 85 83 82 84 79 79 76 78 81 79 75 70 65 66 63 53 41 43 47 45 51 61 65 69
98 97 95 98 98 105 109 110 112 114 113 112 112 98 98 102 94 89 85 84 79 78 76 77 75 76 75 75 74 72 67 64 60 61 60 40 49 58 60 57 62 59 69 71
99 101 102 100 102 104 104 103 104 105 104 104 107 96 94 100 93 88 84 79 75 74 73 70 71 72 71 70 67 62 56 58 61 57 50 46 62 63 63 62 62 65 68 72
102 101 105 105 104 105 104 103 103 102 101 101 95 93 88 96 87 81 75 71 72 67 69 66 66 65 66 68 65 56 50 49 49 54 54 48 59 63 71 81 77 85 83 86
101 100 102 101 105 106 103 96 91 95 99 97 83 90 79 87 82 78 71 67 68 68 63 59 62 62 64 66 64 57 51 44 54 67 68 61 59 61 64 54 66 70 71 72
98 100 102 96 103 104 95 87 95 96 93 91 89 78 83 76 73 69 67 64 62 65 59 54 57 60 62 64 64 63 63 67 57 68 74 77 67 74 79 75 82 87 89 89
96 100 101 88 100 99 87 85 89 87 83 80 79 81 84 81 72 66 63 61 61 63 59 52 53 57 61 64 63 63 67 68 76 78 76 81 87 86 91 90 90 90 92 91
94 94 97 91 95 88 82 80 83 82 80 84 81 81 85 82 75 67 64 59 60 60 62 54 51 54 60 65 65 63 63 68 74 76 78 78 93 87 89 91 93 88 88 87
95 95 95 93 89 80 71 79 85 84 87 86 84 81 78 76 72 68 59 57 59 59 63 61 52 53 56 66 67 66 67 68 71 76 81 83 82 84 86 89 89 89 88 87
92 96 92 87 86 76 69 81 89 87 80 89 77 73 70 69 64 64 59 57 57 57 61 66 58 53 55 64 70 68 69 70 74 75 77 77 79 80 80 81 85 86 87 86
84 86 90 89 86 65 71 79 82 75 74 76 73 68 60 53 50 50 52 55 54 56 59 66 63 55 52 58 69 70 68 66 67 67 68 70 74 75 73 77 80 87 88 85
81 82 83 83 80 63 70 67 76 75 70 66 64 63 55 43 35 34 42 48 50 56 58 63 65 57 50 52 62 70 72 70 68 67 69 65 70 72 74 76 77 80 86 88
75 76 71 76 72 67 61 63 65 65 63 62 58 57 54 46 38 32 43 44 45 52 58 60 63 56 50 48 52 58 62 65 67 65 60 57 58 69 74 76 76 83 87 91
70 67 67 68 68 64 61 62 60 59 57 57 57 51 48 41 33 34 46 46 43 49 55 56 59 53 48 46 47 47 48 50 46 45 55 53 65 69 68 68 73 78 80 85
64 62 60 60 59 62 58 55 55 54 51 48 46 41 39 35 36 38 48 46 42 46 51 53 56 48 46 45 47 48 47 47 43 50 58 57 65 67 69 71 76 81 86 88
55 54 51 53 48 46 54 50 47 46 48 43 37 35 35 30 35 41 48 46 39 43 46 52 51 45 45 43 47 48 49 46 48 61 61 61 65 73 74 79 79 82 84 87
Wind_Direction
283 286 289 288 290 291 292 293 291 292 292 292 294 297 294 290 291 291 290 286 286 287 286 284 285 284 284 287 288 292 298 296 296 296 297 298 297 297 294 295 298 294 293 293
282 285 287 289 291 290 292 293 292 290 288 290 289 292 290 287 289 287 284 284 283 283 281 283 285 287 287 286 288 290 292 294 294 293 293 295 295 293 291 290 289 290 287 290
286 287 286 287 289 289 290 288 287 287 285 288 286 288 286 286 285 283 283 283 283 279 282 284 286 288 290 290 289 287 287 288 289 289 289 289 290 289 287 286 285 282 280 289
284 282 285 286 286 285 287 285 286 285 283 283 285 286 284 279 280 280 278 279 279 281 282 284 285 286 288 288 287 284 282 280 281 284 285 284 287 285 285 282 281 277 279 262
282 282 283 284 283 283 284 285 286 286 285 282 286 284 281 277 277 276 276 279 279 278 280 280 282 282 283 283 282 278 277 277 276 276 278 280 281 279 283 276 276 274 274 274
282 282 282 282 282 283 284 284 285 284 283 282 283 281 284 274 273 271 272 275 278 279 279 279 280 280 281 280 278 275 274 277 276 273 273 275 274 275 282 275 274 271 272 273
281 281 281 281 281 282 282 282 282 282 284 284 283 282 284 276 275 276 277 279 279 280 279 280 278 277 279 281 278 271 271 273 272 270 272 273 274 280 284 278 279 279 275 277
281 283 282 282 284 283 283 283 283 283 282 282 283 284 279 280 281 280 279 279 280 278 277 276 276 277 279 279 276 272 272 272 273 269 270 272 275 279 281 282 283 283 279 276
282 283 284 284 284 282 283 282 281 282 281 281 281 281 281 281 280 281 281 280 279 277 276 276 275 277 277 278 274 268 269 271 272 272 275 275 277 278 281 279 285 282 283 281
280 280 282 283 283 282 280 281 281 282 284 285 286 284 282 282 284 283 280 280 280 277 275 274 272 272 271 270 269 267 267 268 272 273 271 278 281 279 277 273 266 268 274 276
280 281 281 281 279 281 282 284 284 284 284 285 286 286 285 284 281 280 280 279 277 275 272 272 270 268 265 262 260 262 264 266 269 266 268 268 272 277 278 271 259 256 260 269
281 280 283 283 282 280 280 282 282 284 286 288 289 288 286 286 285 283 282 282 279 273 271 270 268 265 264 261 258 258 258 260 260 260 267 267 256 268 272 267 257 258 259 264
286 286 283 283 282 279 280 281 283 284 285 286 288 289 286 286 284 281 280 279 278 274 270 267 264 262 259 256 254 251 255 257 257 258 254 238 255 261 267 266 259 262 263 271
287 287 286 284 285 285 285 286 284 282 284 284 288 283 282 283 282 282 279 275 274 270 268 264 260 257 255 252 248 243 244 249 248 243 242 252 258 262 260 263 261 263 267 271
286 287 286 285 285 284 284 284 285 287 285 283 279 280 274 276 279 278 276 274 272 268 264 262 258 252 249 246 242 234 233 217 226 234 239 246 245 253 254 250 262 265 265 267
286 283 282 284 284 283 286 286 283 282 283 284 283 281 275 274 273 273 274 273 269 267 264 258 254 251 244 243 239 233 226 225 232 230 234 239 243 240 248 255 257 264 265 271
285 285 285 286 283 286 290 282 284 284 283 284 282 280 281 279 275 273 270 269 268 268 264 258 251 248 242 239 237 233 230 228 225 230 230 239 240 244 245 254 258 261 266 272
285 283 283 285 284 285 285 286 284 283 282 278 276 275 273 275 276 274 271 265 262 261 262 258 248 243 241 236 233 233 233 232 231 232 233 233 240 245 250 253 258 262 266 268
286 286 285 287 284 286 288 287 283 281 281 279 273 273 275 275 274 273 266 261 256 254 255 255 248 241 235 234 233 232 232 231 233 232 233 236 244 246 250 253 257 261 264 266
287 287 288 288 285 287 290 282 280 280 281 276 281 277 274 275 275 274 271 260 252 246 248 253 250 240 234 230 232 232 234 235 235 234 239 241 244 250 253 256 258 261 261 263
285 287 290 288 287 292 286 279 279 280 277 283 284 284 281 278 273 272 269 260 249 244 239 243 248 244 234 229 230 231 232 235 241 245 247 251 252 255 258 260 261 259 261 263
288 286 286 289 289 288 276 275 277 279 279 278 277 279 280 275 265 259 260 256 248 242 236 233 240 242 237 228 229 229 231 234 239 244 249 253 257 260 260 261 263 261 258 260
295 293 292 291 289 288 287 281 280 279 278 278 279 278 277 272 261 249 249 247 242 238 232 229 231 235 235 229 231 230 233 236 239 245 251 255 262 262 259 260 263 262 262 264
297 296 292 291 290 288 285 284 281 279 277 275 273 273 271 269 263 248 246 242 234 234 228 224 226 228 229 230 232 231 233 234 239 249 253 249 251 261 260 261 262 263 264 267
298 296 294 292 290 289 286 285 284 282 278 275 275 270 264 260 254 244 245 243 231 229 225 219 222 221 222 224 227 232 235 236 230 243 249 246 251 257 261 264 266 269 270 271
298 298 297 294 294 287 288 289 286 283 283 281 276 268 259 247 238 235 242 241 230 226 221 213 216 214 218 218 222 228 234 234 238 242 245 252 255 258 261 264 267 269 270 273